Location: �clusier
(49.9361°N, 2.7869°E)
Time: 08:08:20
(UTC+00:00)

NOAA 13 - Visible Passes

Search period start: 29 January 2022 00:00
Search period end: 08 February 2022 00:00
Orbit: 842 x 857 km, 98.5° (Epoch: 28 January)

Date Brightness Start Highest point End Pass type
(mag) Time Alt. Az. Time Alt. Az. Time Alt. Az.
29 Jan 6.2 03:58:48 10° NNE 04:03:49 34° E 04:08:48 10° SSE visible
29 Jan 5.0 05:39:26 10° N 05:44:37 43° WNW 05:49:48 10° SW visible
29 Jan 7.6 17:12:59 10° SW 17:16:24 17° W 17:19:49 10° NW visible
30 Jan 6.5 03:46:53 10° NE 03:51:36 28° E 03:56:17 10° SSE visible
30 Jan 4.8 05:27:14 10° N 05:32:35 52° WNW 05:37:55 10° SW visible
31 Jan 6.8 03:35:03 10° NE 03:39:21 23° E 03:43:39 10° SE visible
31 Jan 4.6 05:15:04 10° N 05:20:31 64° WNW 05:25:59 10° SSW visible
01 Feb 7.1 03:23:18 10° NE 03:27:06 18° E 03:30:51 10° SE visible
01 Feb 4.6 05:02:54 10° NNE 05:08:26 78° WNW 05:13:58 10° SSW visible
01 Feb 6.2 06:45:02 10° NNW 06:48:20 16° NW 06:51:37 10° W visible
02 Feb 7.4 03:11:45 10° NE 03:14:49 15° E 03:17:51 10° ESE visible
02 Feb 4.7 04:50:47 10° NNE 04:56:21 86° ESE 05:01:53 10° SSW visible
02 Feb 6.0 06:32:36 10° NNW 06:36:24 19° NW 06:40:13 10° W visible
03 Feb 7.6 03:00:36 10° ENE 03:02:29 12° E 03:04:23 10° ESE visible
03 Feb 4.9 04:38:41 10° NNE 04:44:13 71° ESE 04:49:44 10° S visible
03 Feb 5.8 06:20:12 10° N 06:24:27 23° WNW 06:28:41 10° WSW visible
04 Feb 5.3 04:26:37 10° NNE 04:32:05 57° E 04:37:31 10° S visible
04 Feb 5.6 06:07:53 10° N 06:12:29 28° WNW 06:17:04 10° WSW visible
05 Feb 5.6 04:14:35 10° NNE 04:19:55 46° E 04:25:13 10° S visible
05 Feb 5.4 05:55:36 10° N 06:00:29 33° WNW 06:05:22 10° SW visible
05 Feb 7.9 17:30:39 10° WSW 17:32:39 12° W 17:34:40 10° WNW visible
06 Feb 6.0 04:02:36 10° NNE 04:07:44 38° E 04:12:51 10° SSE visible
06 Feb 5.1 05:43:22 10° N 05:48:29 40° WNW 05:53:35 10° SW visible
07 Feb 6.4 03:50:40 10° NNE 03:55:32 31° E 04:00:22 10° SSE visible
07 Feb 4.9 05:31:09 10° N 05:36:27 48° WNW 05:41:44 10° SW visible
